COSMOS 2499 DEB, 50802

Orbit data source: Space-Track

COSMOS 2499 DEB, 50802 is space debris in LEO originally from a launch on Fri, 23 May 2014 UTC launched from the Plesetsk Missile And Space Complex (PKMTR). Debris objects in space refer to the collection of defunct objects orbiting the Earth. Examples of debris include non-operational satellites, rocket bodies, and fragments generated from explosions, collisions, or faulty payload assembly.

Loading next visibility...
Identifier
50802, 2014-028AC
Orbit
LEO
Country
Flag of CISCIS
Related business
Manufacturer
TsNIIKhM
Mission
Spacecraft
Bus & Motor
Unknown
Mass
Unknown
Launch date (UTC)
2014-05-23 (12 years ago)
Launch vehicle
Unknown
Launch site
Plesetsk Missile And Space Complex (PKMTR)
Object type
Payload
Rocket body
Debris
Shape & HBR
Unknown shape, 0.1 m
Radar Cross Section
Small (<0.1 m²)

Expand to show TLE details & history
Last TLE update: 2 months ago

TLE from 2 months ago
0 COSMOS 2499 DEB
1 50802U 14028AC  26121.07902789  .00006551  00000-0  14329-1 0  9991
2 50802  82.5535 254.4723 0276403 282.7370  74.2992 13.15428032212976
Epoch: 2026-05-01T01:53Z
TLE epoch observation values (Epoch: 2026-05-01T01:53:48.009Z)
Latitude
0.00001°
Longitude
7.00583°
Altitude
1,153.758 km
Speed
7.301 km/s
True Right ascension
16h 57m 53s
True Declination
0° 00' 00"
Sunlit
Object was in full shadow at epoch
Visualization orbit readout
Latitude
Unknown
Longitude
Unknown
Altitude
Unknown
Speed
Unknown
Apparent Right ascension
Unknown
Apparent Declination
Unknown
Sunlit
N/A
Visualization observer readout
Local Sidereal Time
21:51:55
Azimuth
Unknown
Elevation
Unknown
Doppler factor
Unknown
Orbital elements
Apogee altitude
1,408.925 km
Perigee altitude
990.03 km
Semi-major axis
7,577.614 km
Eccentricity
0.02764
Inclination
82.5535°
RAAN
254.4723°
Arg. of periapsis
282.737°
True anomaly
77.37565°
Mean anomaly
74.2992°
Eccentric anomaly
75.83472°
Mean motion
3.29037 °/min
Orbital period
109.41 mins
BSTAR
0.014329
Loading maneuver chart data...
Computing Atmospheric mass density...
Loading historical data...
Loading historical data...
Loading historical data...
Loading historical data...
Loading historical data...
Loading historical data...
Loading historical data...

Documentation

Showing up to 5 results
|